[[{"header":{"parameterUnit":"m.s-1","parameterCategory":1,"la1":30.2991,"la2":30.254,"lo1":-89.0895,"lo2":-89.0444,"dy":0.0017,"dx":0.0017,"nx":28,"ny":28,"refTime":"2025-06-07T09:00:00:Z","depth":0,"parameterNumber":2,"parameterNumberName":"U-component_of_WINDS"},"data":[0,0,0,0,0,0,0,0,0,0,0,0,0,0,0,0,0,0,0,0,0,0,0,0,0,0,0,0,0,0,0,0,0,0,0,0,0,0,0,0,0,0,0,0,0,0,0,0,0,0,0,0,0,0,0,0,0,0,2.7382,2.7383,0,2.7484,2.7486,2.7487,2.7449,2.7447,2.7444,2.7442,2.7552,2.7557,2.7562,0,0,0,0,0,0,0,0,0,0,0,0,0,2.7158,2.7162,2.7382,2.7383,2.7384,2.7484,2.7486,2.7487,2.7449,2.7447,2.7444,2.7441,2.755,2.7556,2.7562,0,0,0,0,0,0,0,0,0,0,0,0,0,2.7257,2.7164,2.7382,2.7378,2.7378,2.7484,2.7486,2.7487,2.745,2.7446,2.7443,2.744,2.7548,2.7556,2.7563,2.7681,0,0,2.7587,2.759,0,0,0,0,0,0,0,0,2.7252,2.7266,2.7377,2.7378,2.7379,2.745,2.7447,2.7552,2.7451,2.7423,2.7442,2.7438,2.7521,2.7531,2.7558,2.7686,2.7691,2.7587,2.7592,2.7595,2.7597,0,0,0,0,0,0,0,2.7245,2.7261,2.7423,2.7379,2.738,2.7372,2.7382,2.7467,2.7491,2.7425,2.7423,2.7435,2.7521,2.7551,2.756,2.7692,2.7587,2.7594,2.7599,2.7602,2.7922,2.7926,0,0,0,0,0,0,2.7237,2.7256,2.7419,2.7426,2.7305,2.7379,2.739,2.7431,2.749,2.7495,2.7438,2.7433,2.7539,2.7551,2.7564,2.7706,2.7595,2.7602,2.7607,2.7918,2.7923,2.7927,0,0,0,0,0,0,2.7232,2.7252,2.7415,2.734,2.736,2.7386,2.7432,2.7435,2.7464,2.7499,2.7504,2.7463,2.7537,2.7553,2.7652,2.7709,2.7606,2.7613,2.7914,2.792,2.7925,2.7989,0,0,0,0,0,0,2.7226,2.7251,2.7294,2.7341,2.7364,2.75,2.7436,2.7439,2.7477,2.7471,2.7524,2.753,2.7536,2.7641,2.7659,2.7718,2.7619,2.7909,2.7916,2.7923,2.7982,2.7997,2.8009,0,0,0,0,0,2.7218,2.7309,2.7297,2.7317,2.7419,2.7503,2.7517,2.752,2.7482,2.7527,2.7549,2.7528,2.7699,2.7651,2.7672,2.7733,2.7905,2.7914,2.7923,2.7976,2.7994,2.8009,0,0,0,0,0,0,2.727,2.7315,2.7302,2.7411,2.7453,2.7497,2.7553,2.7539,2.7594,2.7587,2.759,2.7603,2.7704,2.7728,2.7674,2.785,2.7797,2.781,2.783,2.7847,2.7861,2.7853,2.7625,0,0,0,0,0,2.7294,2.7357,2.7394,2.7486,2.7508,2.7527,2.7564,2.7563,2.7608,2.7626,2.7656,2.7701,2.7765,2.7808,2.7869,2.7986,2.7997,2.8038,2.8052,2.8062,2.8074,2.8138,2.8157,2.7956,2.7956,2.7956,0,0,2.7344,2.7377,2.7417,2.7497,2.753,2.7597,2.7543,2.7615,2.7665,2.7638,2.7732,2.7755,2.7807,2.7915,2.7964,2.7938,2.8132,2.8074,2.8082,2.8088,2.8149,2.8168,2.8185,2.7962,2.7961,2.796,0,0,2.747,2.7501,2.7581,2.7615,2.7664,2.7677,2.7696,2.7742,2.7756,2.785,2.7831,2.7891,2.8002,2.8039,2.8072,2.8212,2.8195,2.8232,2.8303,2.8365,2.8381,2.8395,2.8445,2.8463,2.8244,2.8244,2.8244,0,2.7527,2.7624,2.7625,2.7699,2.7735,2.7712,2.7794,2.7827,2.7895,2.7922,2.7891,2.8029,2.8062,2.8179,2.8213,2.8241,2.8264,2.8226,2.8378,2.8392,2.8406,2.8454,2.8473,2.8248,2.8248,2.8247,2.8247,0,2.7692,2.776,2.7819,2.7884,2.7927,2.8005,2.8018,2.8062,2.8058,2.8073,2.817,2.8209,2.8277,2.8305,2.8302,2.8422,2.8404,2.8376,2.8323,2.8429,2.8474,2.8493,2.8254,2.8253,2.8251,2.825,0,0,2.7853,2.7916,2.7938,2.7967,2.8021,2.8074,2.8152,2.8217,2.8255,2.8303,2.8369,2.8462,2.8437,2.8475,2.8475,2.853,2.8639,2.8496,2.8497,2.8521,2.8775,2.8796,2.8817,2.8628,2.8632,2.8634,2.8771,0,2.7983,2.8117,2.8119,2.8243,2.8307,2.8286,2.8353,2.8394,2.8411,2.8469,2.8488,2.8554,2.8515,2.8538,2.8591,2.8615,2.869,2.8605,2.8691,2.8694,2.8679,2.8841,2.8863,2.899,2.8788,2.8791,2.8793,0,2.8152,2.8204,2.8334,2.8378,2.8405,2.8465,2.8525,2.858,2.8627,2.8636,2.8678,2.8671,2.8751,2.8695,2.8806,2.8748,2.8783,2.88,2.8805,2.8814,2.875,2.8854,2.903,2.9049,2.8821,2.8819,2.8817,0,2.8257,2.836,2.845,2.8476,2.853,2.8573,2.8598,2.864,2.868,2.8733,2.8759,2.8821,2.8856,2.8905,2.8916,2.8873,2.9028,2.8972,2.9038,2.9038,2.9072,2.907,2.9257,2.9094,2.9094,2.9094,2.9093,0,2.8402,2.8483,2.8498,2.8554,2.8644,2.8646,2.8736,2.8757,2.8796,2.8856,2.8843,2.89,2.891,2.8971,2.8979,2.9071,2.9087,2.9097,2.9098,2.9098,2.9097,2.9122,2.9114,2.9099,2.9098,2.9097,2.9096,0,2.8535,2.8548,2.8646,2.8688,2.8701,2.8765,2.8803,2.8857,2.8872,2.895,2.8968,2.8993,2.9063,2.9078,2.9162,2.9168,2.9277,2.9269,2.9261,2.926,2.9326,2.932,2.9535,2.9564,2.9382,2.9384,2.9386,0,2.8626,2.8687,2.8736,2.8775,2.8802,2.8865,2.8905,2.891,2.8952,2.901,2.9058,2.9126,2.9181,2.9295,2.9322,2.9386,2.938,2.9452,2.939,2.9388,2.9382,2.9379,2.9385,2.9464,2.9465,2.9467,2.9468,0,2.8788,2.8791,2.8848,2.8908,2.8955,2.9003,2.9048,2.9081,2.9093,2.9142,2.9213,2.9255,2.934,2.9409,2.9473,2.9501,2.9488,2.9487,2.9506,2.9507,2.95,2.9505,2.9293,2.9483,2.9481,2.948,2.9479,2.9479,2.8903,2.8956,2.8999,2.9063,2.9098,2.914,2.9193,2.9215,2.9274,2.9342,2.9342,2.942,2.9466,2.9551,2.9582,2.9644,2.9622,2.9649,2.9656,2.9663,2.9669,2.9489,2.9656,2.9655,2.9655,2.9655,2.9655,0,2.9064,2.909,2.9149,2.9212,2.9263,2.9244,2.9294,2.9338,2.9406,2.9449,2.9503,2.9586,2.9652,2.9684,2.975,2.9794,2.9789,2.9811,2.9808,2.9815,2.9685,2.9662,2.9813,2.9813,2.9813,2.9813,2.9813,2.9813,2.9154,2.9243,2.9252,2.9359,2.9385,2.946,2.949,2.953,2.9564,2.9656,2.9711,2.973,2.9769,2.9838,2.9899,2.9906,2.9932,2.9957,2.9962,2.984,2.9824,2.9808,2.9787,2.9962,2.9962,3.0086,3.0088,3.0088]},{"header":{"parameterUnit":"m.s-1","parameterCategory":1,"la1":30.2991,"la2":30.254,"lo1":-89.0895,"lo2":-89.0444,"dy":0.0017,"dx":0.0017,"nx":28,"ny":28,"refTime":"2025-06-07T09:00:00:Z","depth":0,"parameterNumber":3,"parameterNumberName":"V-component_of_WINDS"},"data":[0,0,0,0,0,0,0,0,0,0,0,0,0,0,0,0,0,0,0,0,0,0,0,0,0,0,0,0,0,0,0,0,0,0,0,0,0,0,0,0,0,0,0,0,0,0,0,0,0,0,0,0,0,0,0,0,0,0,6.8265,6.8267,0,6.8399,6.8401,6.8402,6.8363,6.836,6.8357,6.8355,6.8481,6.8487,6.8493,0,0,0,0,0,0,0,0,0,0,0,0,0,6.7964,6.797,6.8265,6.8267,6.8269,6.8399,6.8401,6.8402,6.8363,6.836,6.8357,6.8354,6.8479,6.8486,6.8493,0,0,0,0,0,0,0,0,0,0,0,0,0,6.8096,6.7971,6.8265,6.8265,6.8266,6.8399,6.8401,6.8403,6.8364,6.836,6.8356,6.8352,6.8477,6.8485,6.8494,6.8631,0,0,6.8521,6.8525,0,0,0,0,0,0,0,0,6.8088,6.8107,6.8263,6.8265,6.8267,6.836,6.8341,6.8479,6.8365,6.8327,6.8355,6.835,6.8443,6.8455,6.8489,6.8637,6.8642,6.8522,6.8527,6.8531,6.8534,0,0,0,0,0,0,0,6.8079,6.8101,6.8318,6.8266,6.8268,6.8254,6.8269,6.8367,6.8406,6.833,6.8327,6.8344,6.8443,6.848,6.8491,6.8644,6.8522,6.853,6.8535,6.8538,6.8909,6.8913,0,0,0,0,0,0,6.807,6.8093,6.8314,6.8322,6.8166,6.8263,6.8279,6.8334,6.8405,6.8412,6.8348,6.8342,6.8467,6.8481,6.8495,6.8659,6.8531,6.8539,6.8544,6.8904,6.891,6.8915,0,0,0,0,0,0,6.8064,6.809,6.8308,6.8207,6.8234,6.8273,6.8335,6.8339,6.8376,6.8419,6.8424,6.8379,6.8464,6.8483,6.8598,6.8663,6.8543,6.8551,6.8899,6.8906,6.8912,6.8989,0,0,0,0,0,0,6.8056,6.8088,6.8144,6.8209,6.824,6.8412,6.8339,6.8345,6.8393,6.8386,6.8449,6.8455,6.8462,6.8585,6.8607,6.8673,6.8558,6.8893,6.8902,6.891,6.8981,6.8998,6.9012,0,0,0,0,0,6.8045,6.8158,6.8147,6.8173,6.831,6.8416,6.8433,6.8442,6.8398,6.8452,6.8479,6.8453,6.8653,6.8597,6.8621,6.8691,6.8889,6.8899,6.8909,6.8974,6.8994,6.9012,0,0,0,0,0,0,6.8096,6.8166,6.8155,6.8293,6.8349,6.8409,6.8478,6.8464,6.8531,6.8522,6.8526,6.8541,6.8658,6.8686,6.8623,6.8826,6.8764,6.8779,6.8804,6.8824,6.884,6.883,6.8566,0,0,0,0,0,6.8124,6.8208,6.8263,6.838,6.8409,6.8439,6.8485,6.8488,6.8544,6.8567,6.8602,6.8655,6.8729,6.8778,6.8849,6.8984,6.8996,6.9044,6.906,6.9072,6.9086,6.9157,6.9179,6.8948,6.8948,6.8948,0,0,6.8181,6.823,6.8282,6.8391,6.8435,6.8518,6.8459,6.8549,6.861,6.8579,6.8691,6.8719,6.8777,6.8903,6.896,6.893,6.9152,6.9085,6.9095,6.9102,6.917,6.9192,6.9211,6.8955,6.8954,6.8952,0,0,6.8328,6.8375,6.8477,6.8522,6.8591,6.861,6.8634,6.8697,6.8715,6.8828,6.8806,6.8876,6.9004,6.9047,6.9086,6.9248,6.9226,6.9271,6.9352,6.9422,6.944,6.9456,6.9513,6.9533,6.9284,6.9284,6.9284,0,6.839,6.8519,6.853,6.8624,6.8671,6.865,6.8751,6.8793,6.8879,6.891,6.8876,6.9037,6.9075,6.9209,6.9249,6.9281,6.9307,6.9264,6.9437,6.9454,6.9469,6.9523,6.9544,6.9289,6.9288,6.9288,6.9287,0,6.859,6.868,6.8753,6.8841,6.8896,6.8993,6.9015,6.9069,6.9065,6.9087,6.92,6.9245,6.9325,6.9356,6.9353,6.949,6.9469,6.9436,6.9373,6.9496,6.9546,6.9567,6.9296,6.9294,6.9293,6.9291,0,0,6.8774,6.8868,6.8894,6.8934,6.9007,6.9074,6.9168,6.9249,6.9294,6.9353,6.943,6.9539,6.9509,6.9553,6.9554,6.9615,6.9739,6.9574,6.9575,6.9603,6.9891,6.9916,6.994,6.9725,6.9729,6.9732,6.9886,0,6.8927,6.9098,6.911,6.9261,6.9342,6.9323,6.9404,6.9456,6.9478,6.9546,6.9568,6.9646,6.9601,6.9627,6.9687,6.9712,6.9797,6.9701,6.9794,6.9797,6.978,6.9967,6.9993,7.0136,6.9906,6.9909,6.9912,0,6.9129,6.9199,6.936,6.9422,6.9456,6.953,6.9604,6.9671,6.9728,6.9739,6.9788,6.978,6.9872,6.9806,6.9931,6.9866,6.9904,6.9921,6.9927,6.9936,6.9862,6.9979,7.0182,7.0203,6.9943,6.9941,6.9939,0,6.9246,6.9379,6.9493,6.9527,6.9602,6.9654,6.9687,6.974,6.9787,6.9851,6.9881,6.9953,6.9992,7.0046,7.0056,7.0007,7.0181,7.0116,7.019,7.019,7.0228,7.0225,7.0438,7.0253,7.0253,7.0252,7.0252,0,6.9416,6.9515,6.9547,6.9617,6.9726,6.9737,6.9843,6.9872,6.9919,6.9991,6.9977,7.0043,7.0053,7.0121,7.0129,7.0231,7.0248,7.0257,7.0258,7.0259,7.0258,7.0284,7.0274,7.0258,7.0257,7.0256,7.0255,0,6.9565,6.9591,6.9714,6.9775,6.9793,6.987,6.9921,6.9985,7.0006,7.0097,7.0118,7.0149,7.0228,7.0244,7.0336,7.0341,7.0463,7.0453,7.0445,7.0444,7.0517,7.051,7.0754,7.0786,7.058,7.0582,7.0584,0,6.9672,6.9748,6.9819,6.9868,6.9905,6.9984,7.0033,7.0045,7.0096,7.0166,7.0221,7.03,7.0364,7.0491,7.0518,7.0589,7.0581,7.0661,7.0591,7.0589,7.0581,7.0576,7.0583,7.0675,7.0677,7.0679,7.068,0,6.9858,6.9868,6.9942,7.002,7.008,7.0141,7.0199,7.0239,7.0258,7.0315,7.0399,7.0448,7.0544,7.0621,7.0691,7.072,7.0703,7.0702,7.0723,7.0724,7.0716,7.0721,7.0481,7.0696,7.0695,7.0694,7.0693,7.0692,6.9989,7.0056,7.0117,7.0199,7.0244,7.0299,7.0363,7.0392,7.0463,7.0545,7.0546,7.0636,7.0688,7.0781,7.0814,7.0882,7.0856,7.0886,7.0894,7.0901,7.0908,7.0706,7.0895,7.0894,7.0894,7.0894,7.0893,0,7.0174,7.0213,7.0289,7.0372,7.0436,7.0417,7.048,7.0533,7.0614,7.0666,7.073,7.0824,7.0898,7.0932,7.1005,7.1052,7.1046,7.1071,7.1067,7.1073,7.0927,7.0902,7.1075,7.1075,7.1075,7.1075,7.1074,7.1074,7.0278,7.0391,7.0407,7.0539,7.0575,7.0667,7.0704,7.0753,7.0794,7.0902,7.0965,7.0988,7.1031,7.1107,7.1173,7.118,7.1207,7.1236,7.1239,7.1102,7.1084,7.1066,7.1043,7.1242,7.1242,7.138,7.1381,7.1382]}]]